Tracking 31027 objects as of 19-Jul-2025
HD Live streaming from Space Station
objects crossing your sky now

COSMOS 2248

Track COSMOS 2248 now!
10-day predictions
COSMOS 2248 is classified as:


NORAD ID: 22649
Int'l Code: 1993-030D
Perigee: 1,408.7 km
Apogee: 1,422.5 km
Inclination: 82.6 °
Period: 114.0 minutes
Semi major axis: 7786 km
RCS: 1.0352 m2 (large)
Launch date: May 11, 1993
Source: Commonwealth of Independent States (former USSR) (CIS)
Launch site: PLESETSK MISSILE AND SPACE COMPLEX (PKMTR)
Your satellite tracking list
Your tracking list is empty




NASA's NSSDC Master Catalog

Two Line Element Set (TLE):
1 22649U 93030D   25199.89697873  .00000039  00000-0  15536-3 0  9996
2 22649  82.5797 164.4583 0008854 338.4403  21.6315 12.63511927484511
Source of the keplerian elements: AFSPC